Location: Pettit
(39.0209°N, 79.7181°W)
Time: 05:45:21
(UTC+00:00)

ISS - Pass Details

Date: 18 April 2026
Orbit: 414 x 424 km, 51.6° (Epoch: 15 May)

Event Time Altitude Azimuth Distance (km) Brightness Sun altitude
Exits shadow 09:37:52 16° 217° (SW) 1,159 -2.1 -11.8°
Maximum altitude 09:40:20 63° 139° (SE) 472 -3.5 -11.4°
Drops below altitude 10° 09:43:41 10° 57° (ENE) 1,504 0.6 -10.8°
Sets 09:45:48 0° 54° (NE) 2,373 2.0 -10.4°
